When you browse on this site, cookies collect data to enhance your experience and personalize the content and advertising you see.
Visit our Privacy Policy to learn more. By continuing to use the site, you agree to this use of cookies and data.
  • In Hungary
  • List of Countries
  • For 7 days
  • Water Temperature
  • Satellite Maps
  • Weather Map
  • News
  • Weather Widgets
  • user-avatar
    Login

    Hourly Weather Rethymnon

    Today, 15 December, Saturday

    Time Temperature Precipitation Wind Pressure Humidity
    00:00 +15°C° 0 mm 5 mps 758 mmHg 68%
    01:00 +15°C° 0 mm 5 mps 757 mmHg 69%
    02:00 +16°C° 0 mm 7 mps 757 mmHg 66%
    03:00 +15°C° 0 mm 7 mps 757 mmHg 68%
    04:00 +15°C° 0 mm 6 mps 757 mmHg 70%
    05:00 +15°C° 0 mm 6 mps 757 mmHg 72%
    06:00 +15°C° 0 mm 6 mps 757 mmHg 72%
    07:00 +16°C° 0 mm 6 mps 757 mmHg 71%
    08:00 +16°C° 0 mm 7 mps 756 mmHg 71%
    09:00 +17°C° 0 mm 7 mps 756 mmHg 69%
    10:00 +17°C° 0 mm 7 mps 756 mmHg 66%
    11:00 +18°C° 0 mm 7 mps 756 mmHg 64%
    12:00 +18°C° 0 mm 7 mps 756 mmHg 64%
    13:00 +18°C° 0 mm 7 mps 756 mmHg 64%
    14:00 +18°C° 0 mm 7 mps 755 mmHg 65%
    15:00 +18°C° 0 mm 7 mps 755 mmHg 67%
    16:00 +17°C° 0 mm 7 mps 754 mmHg 69%
    17:00 +17°C° 0 mm 7 mps 754 mmHg 71%
    18:00 +17°C° 0.1 mm 7 mps 754 mmHg 72%
    19:00 +16°C° 0.1 mm 7 mps 754 mmHg 73%
    20:00 +16°C° 0.1 mm 7 mps 754 mmHg 74%
    21:00 +16°C° 0.2 mm 7 mps 754 mmHg 73%
    22:00 +16°C° 0.2 mm 7 mps 754 mmHg 73%
    23:00 +16°C° 0.2 mm 7 mps 753 mmHg 73%

    Tomorrow, 16 December, Sunday

    Time Temperature Precipitation Wind Pressure Humidity
    00:00 +16°C° 0.2 mm 6 mps 753 mmHg 71%
    01:00 +16°C° 0.2 mm 5 mps 753 mmHg 70%
    02:00 +16°C° 0.2 mm 5 mps 753 mmHg 69%
    03:00 +15°C° 0.3 mm 5 mps 752 mmHg 71%
    04:00 +14°C° 0.3 mm 4 mps 752 mmHg 74%
    05:00 +14°C° 0.3 mm 4 mps 752 mmHg 76%
    06:00 +14°C° 0.1 mm 4 mps 752 mmHg 77%
    07:00 +13°C° 0.1 mm 4 mps 752 mmHg 79%
    08:00 +13°C° 0.1 mm 4 mps 752 mmHg 80%
    09:00 +14°C° 0 mm 3 mps 752 mmHg 76%
    10:00 +16°C° 0 mm 3 mps 752 mmHg 72%
    11:00 +17°C° 0 mm 3 mps 753 mmHg 67%
    12:00 +17°C° 0.1 mm 3 mps 753 mmHg 65%
    13:00 +18°C° 0.1 mm 4 mps 752 mmHg 62%
    14:00 +18°C° 0.1 mm 4 mps 752 mmHg 60%
    15:00 +17°C° 0.1 mm 4 mps 752 mmHg 62%
    16:00 +17°C° 0.1 mm 4 mps 753 mmHg 64%
    17:00 +17°C° 0.1 mm 4 mps 753 mmHg 66%
    18:00 +15°C° 0 mm 4 mps 753 mmHg 68%
    19:00 +15°C° 0 mm 4 mps 754 mmHg 70%
    20:00 +14°C° 0 mm 4 mps 754 mmHg 71%
    21:00 +14°C° 0 mm 4 mps 755 mmHg 72%
    22:00 +14°C° 0 mm 4 mps 755 mmHg 73%
    23:00 +14°C° 0 mm 4 mps 755 mmHg 74%

    Day after tomorrow, 17 December, Monday

    Time Temperature Precipitation Wind Pressure Humidity
    00:00 +13°C° 0 mm 4 mps 755 mmHg 74%
    01:00 +13°C° 0 mm 4 mps 756 mmHg 74%
    02:00 +13°C° 0 mm 4 mps 756 mmHg 75%
    03:00 +13°C° 0 mm 4 mps 756 mmHg 76%
    04:00 +13°C° 0 mm 4 mps 756 mmHg 78%
    05:00 +13°C° 0 mm 4 mps 755 mmHg 79%
    06:00 +13°C° 0 mm 3 mps 756 mmHg 80%
    07:00 +13°C° 0 mm 3 mps 756 mmHg 80%
    08:00 +13°C° 0 mm 3 mps 757 mmHg 81%
    09:00 +14°C° 0 mm 3 mps 757 mmHg 74%
    10:00 +17°C° 0 mm 3 mps 757 mmHg 68%
    11:00 +18°C° 0 mm 3 mps 757 mmHg 61%
    12:00 +18°C° 0 mm 3 mps 757 mmHg 60%
    13:00 +19°C° 0 mm 4 mps 757 mmHg 58%
    14:00 +19°C° 0 mm 4 mps 757 mmHg 57%
    15:00 +19°C° 0 mm 5 mps 757 mmHg 60%
    16:00 +17°C° 0 mm 5 mps 757 mmHg 64%
    17:00 +16°C° 0 mm 5 mps 757 mmHg 67%
    18:00 +16°C° 0 mm 5 mps 757 mmHg 69%
    19:00 +15°C° 0 mm 5 mps 757 mmHg 71%
    20:00 +15°C° 0 mm 5 mps 757 mmHg 73%
    21:00 +14°C° 0 mm 5 mps 757 mmHg 75%
    22:00 +14°C° 0 mm 5 mps 757 mmHg 77%
    23:00 +14°C° 0 mm 5 mps 757 mmHg 79%

    18 December, Tuesday

    Time Temperature Precipitation Wind Pressure Humidity
    00:00 +14°C° 0.1 mm 5 mps 757 mmHg 81%
    01:00 +14°C° 0.1 mm 5 mps 756 mmHg 82%
    02:00 +14°C° 0.1 mm 5 mps 756 mmHg 84%
    03:00 +14°C° 0.8 mm 6 mps 755 mmHg 85%
    04:00 +15°C° 0.8 mm 7 mps 755 mmHg 87%
    05:00 +15°C° 0.8 mm 8 mps 754 mmHg 88%
    06:00 +15°C° 0.5 mm 8 mps 754 mmHg 86%
    07:00 +15°C° 0.5 mm 8 mps 754 mmHg 84%
    08:00 +15°C° 0.5 mm 9 mps 754 mmHg 82%
    09:00 +16°C° 0.1 mm 9 mps 754 mmHg 75%
    10:00 +16°C° 0.1 mm 9 mps 754 mmHg 68%
    11:00 +17°C° 0.1 mm 9 mps 754 mmHg 62%
    12:00 +17°C° 0.1 mm 10 mps 754 mmHg 61%
    13:00 +17°C° 0.1 mm 10 mps 754 mmHg 60%
    14:00 +17°C° 0.1 mm 10 mps 753 mmHg 59%
    15:00 +16°C° 0.1 mm 10 mps 753 mmHg 61%
    16:00 +16°C° 0.1 mm 10 mps 753 mmHg 64%
    17:00 +14°C° 0.1 mm 10 mps 753 mmHg 67%
    18:00 +13°C° 0.3 mm 10 mps 754 mmHg 68%
    19:00 +13°C° 0.3 mm 10 mps 754 mmHg 69%
    20:00 +13°C° 0.3 mm 9 mps 754 mmHg 70%
    21:00 +13°C° 0.2 mm 9 mps 754 mmHg 69%
    22:00 +13°C° 0.2 mm 9 mps 755 mmHg 69%
    23:00 +13°C° 0.2 mm 9 mps 755 mmHg 69%

    19 December, Wednesday

    Time Temperature Precipitation Wind Pressure Humidity
    00:00 +13°C° 0.3 mm 8 mps 755 mmHg 70%
    01:00 +13°C° 0.3 mm 8 mps 755 mmHg 72%
    02:00 +13°C° 0.3 mm 8 mps 755 mmHg 73%
    03:00 +12°C° 0.4 mm 8 mps 755 mmHg 74%
    04:00 +12°C° 0.4 mm 7 mps 755 mmHg 75%
    05:00 +12°C° 0.4 mm 7 mps 755 mmHg 76%
    06:00 +12°C° 0.2 mm 7 mps 756 mmHg 76%
    07:00 +12°C° 0.2 mm 7 mps 757 mmHg 76%
    08:00 +13°C° 0.2 mm 6 mps 757 mmHg 76%
    09:00 +14°C° 0.1 mm 6 mps 758 mmHg 72%
    10:00 +14°C° 0.1 mm 6 mps 758 mmHg 69%
    11:00 +15°C° 0.1 mm 6 mps 759 mmHg 65%
    12:00 +15°C° 0.1 mm 5 mps 759 mmHg 63%
    13:00 +15°C° 0.1 mm 5 mps 759 mmHg 61%
    14:00 +16°C° 0.1 mm 5 mps 759 mmHg 59%
    15:00 +15°C° 0 mm 4 mps 759 mmHg 61%
    16:00 +15°C° 0 mm 4 mps 759 mmHg 63%
    17:00 +14°C° 0 mm 3 mps 759 mmHg 65%
    18:00 +13°C° 0 mm 3 mps 759 mmHg 68%
    19:00 +13°C° 0 mm 3 mps 760 mmHg 71%
    20:00 +13°C° 0 mm 2 mps 760 mmHg 74%
    21:00 +13°C° 0 mm 2 mps 760 mmHg 75%
    22:00 +13°C° 0 mm 2 mps 760 mmHg 76%
    23:00 +13°C° 0 mm 2 mps 760 mmHg 77%

    20 December, Thursday

    Time Temperature Precipitation Wind Pressure Humidity
    00:00 +13°C° 0 mm 2 mps 760 mmHg 77%
    01:00 +12°C° 0 mm 2 mps 760 mmHg 78%
    02:00 +12°C° 0 mm 2 mps 760 mmHg 78%
    03:00 +12°C° 0 mm 2 mps 760 mmHg 78%
    04:00 +12°C° 0 mm 2 mps 761 mmHg 78%
    05:00 +12°C° 0 mm 2 mps 761 mmHg 78%
    06:00 +12°C° 0 mm 2 mps 761 mmHg 78%
    07:00 +12°C° 0 mm 2 mps 761 mmHg 78%
    08:00 +12°C° 0 mm 2 mps 762 mmHg 78%
    09:00 +14°C° 0 mm 2 mps 762 mmHg 72%
    10:00 +15°C° 0 mm 2 mps 762 mmHg 65%
    11:00 +16°C° 0 mm 2 mps 763 mmHg 59%
    12:00 +16°C° 0 mm 2 mps 762 mmHg 57%
    13:00 +17°C° 0 mm 2 mps 762 mmHg 55%
    14:00 +17°C° 0 mm 2 mps 762 mmHg 53%
    15:00 +17°C° 0 mm 2 mps 762 mmHg 57%
    16:00 +16°C° 0 mm 2 mps 762 mmHg 61%
    17:00 +15°C° 0 mm 2 mps 762 mmHg 66%
    18:00 +15°C° 0 mm 2 mps 762 mmHg 69%
    19:00 +14°C° 0 mm 2 mps 763 mmHg 72%
    20:00 +13°C° 0 mm 2 mps 763 mmHg 75%
    21:00 +13°C° 0 mm 2 mps 763 mmHg 77%
    22:00 +13°C° 0 mm 1 mps 763 mmHg 78%
    23:00 +12°C° 0 mm 1 mps 763 mmHg 80%
    Show more